NORTHEAST SUFFOLK  -  Air Quality Alert Air Quality Alert        NORTHERN NASSAU  -  Air Quality Alert Air Quality Alert        NORTHERN QUEENS  -  Air Quality Alert Air Quality Alert        NORTHWEST SUFFOLK  -  Air Quality Alert Air Quality Alert        SOUTHEAST SUFFOLK  -  Air Quality Alert Air Quality Alert        SOUTHERN NASSAU  -  Air Quality Alert Air Quality Alert        SOUTHERN QUEENS  -  Air Quality Alert Air Quality Alert        SOUTHWEST SUFFOLK  -  Air Quality Alert Air Quality Alert      

Active alerts

Northern Queens
  Details for Northern Queens Air Quality Alert
Southern Queens
  Details for Southern Queens Air Quality Alert
Northern Nassau
  Details for Northern Nassau Air Quality Alert
Southern Nassau
  Details for Southern Nassau Air Quality Alert
Northwest Suffolk
  Details for Northwest Suffolk Air Quality Alert
Southwest Suffolk
  Details for Southwest Suffolk Air Quality Alert
Northeast Suffolk
  Details for Northeast Suffolk Air Quality Alert
Southeast Suffolk
  Details for Southeast Suffolk Air Quality Alert


WXM80 ListenWXM80 Stop

You find our weather info also at:

UK Metoffice

WeatherCloud

Weather Underground

Northeastern Weather Network

AWEKAS

Citizen Weather Observer Program (CWOP)

HAMweather, WeatherForYou, PWS Weather


Weather Underground History page Text

Daily Summary for November 26, 2017 Units:  English    Metric   Both
« Previous Day
Next Day »
Daily Weekly Monthly Yearly Custom
  High: Low: Average:
Temperature: 51.2 °F 38.3 °F 45.5 °F
Dew Point: 42.0 °F 28.3 °F 33.3 °F
Humidity: 71 % 51 % 62 %
Wind Speed: 11.8 mph 0.0 mph 4.8 mph
Wind Gust: 19.6 mph - -
Wind:- - West
Pressure: 30.01 in 29.74 in -
Precipitation: 0.00 in    
Historical Graphs
 
 
Tabular Data for November 26, 2017
Time Temperature Dew Point Pressure Wind Wind Speed Wind Gust Humidity Rainfall Rate (Hourly)
00:01 50.6 °F 40.0 °F 29.74 in West 3.2 mph 4.6 mph 67 % 0.00 in
00:06 50.6 °F 40.0 °F 29.74 in SW 1.7 mph 4.6 mph 67 % 0.00 in
00:11 50.7 °F 40.1 °F 29.74 in West 2.8 mph 5.8 mph 67 % 0.00 in
00:17 50.7 °F 40.1 °F 29.74 in WNW 3.4 mph 5.0 mph 67 % 0.00 in
00:22 50.7 °F 40.1 °F 29.74 in WSW 4.5 mph 9.2 mph 67 % 0.00 in
00:27 50.8 °F 40.2 °F 29.75 in West 4.3 mph 7.0 mph 67 % 0.00 in
00:32 50.8 °F 40.2 °F 29.75 in West 3.9 mph 8.1 mph 67 % 0.00 in
00:37 50.8 °F 39.8 °F 29.75 in WSW 3.3 mph 9.2 mph 66 % 0.00 in
00:42 50.9 °F 40.3 °F 29.75 in WSW 6.0 mph 10.4 mph 67 % 0.00 in
00:47 51.0 °F 40.0 °F 29.75 in WSW 3.6 mph 5.8 mph 66 % 0.00 in
00:52 51.0 °F 40.0 °F 29.75 in West 0.9 mph 5.0 mph 66 % 0.00 in
00:57 51.0 °F 40.0 °F 29.75 in WNW 4.5 mph 8.0 mph 66 % 0.00 in
01:02 51.1 °F 40.1 °F 29.75 in SW 3.9 mph 10.4 mph 66 % 0.00 in
01:07 51.2 °F 40.2 °F 29.76 in West 5.0 mph 10.4 mph 66 % 0.00 in
01:12 51.2 °F 40.2 °F 29.76 in SW 4.7 mph 7.0 mph 66 % 0.00 in
01:17 51.2 °F 40.2 °F 29.76 in WSW 5.7 mph 8.1 mph 66 % 0.00 in
01:22 51.2 °F 40.2 °F 29.76 in West 4.2 mph 9.2 mph 66 % 0.00 in
01:27 51.2 °F 40.6 °F 29.77 in WSW 2.5 mph 9.2 mph 67 % 0.00 in
01:32 51.2 °F 41.0 °F 29.77 in West 1.3 mph 4.6 mph 68 % 0.00 in
01:37 51.2 °F 41.4 °F 29.78 in West 5.5 mph 7.0 mph 69 % 0.00 in
01:42 51.1 °F 41.7 °F 29.78 in NW 6.2 mph 12.0 mph 70 % 0.00 in
01:47 51.2 °F 41.7 °F 29.78 in NW 6.6 mph 11.5 mph 70 % 0.00 in
01:52 51.2 °F 41.7 °F 29.78 in WNW 4.7 mph 10.0 mph 70 % 0.00 in
01:57 51.1 °F 42.0 °F 29.78 in WNW 4.4 mph 10.0 mph 71 % 0.00 in
02:02 51.0 °F 41.9 °F 29.79 in West 4.5 mph 9.2 mph 71 % 0.00 in
02:07 51.0 °F 41.9 °F 29.79 in West 6.4 mph 9.2 mph 71 % 0.00 in
02:12 50.9 °F 41.8 °F 29.79 in NNW 6.4 mph 11.0 mph 71 % 0.00 in
02:17 50.8 °F 41.7 °F 29.79 in WNW 6.4 mph 12.7 mph 71 % 0.00 in
02:22 50.7 °F 41.6 °F 29.79 in WNW 7.8 mph 11.5 mph 71 % 0.00 in
02:27 50.7 °F 40.9 °F 29.79 in WNW 3.8 mph 10.0 mph 69 % 0.00 in
02:32 50.7 °F 40.5 °F 29.79 in WNW 1.5 mph 3.5 mph 68 % 0.00 in
02:37 50.6 °F 40.8 °F 29.79 in WNW 2.7 mph 6.9 mph 69 % 0.00 in
02:42 50.6 °F 40.0 °F 29.79 in West 5.0 mph 9.2 mph 67 % 0.00 in
02:47 50.6 °F 40.0 °F 29.79 in West 5.2 mph 13.0 mph 67 % 0.00 in
02:48 50.5 °F 39.6 °F 29.79 in WNW 3.9 mph 12.7 mph 66 % 0.00 in
02:54 50.5 °F 39.6 °F 29.79 in West 7.9 mph 15.0 mph 66 % 0.00 in
02:59 50.5 °F 39.6 °F 29.79 in WNW 2.9 mph 4.6 mph 66 % 0.00 in
03:04 50.5 °F 39.6 °F 29.79 in WNW 3.0 mph 11.5 mph 66 % 0.00 in
03:09 50.4 °F 39.5 °F 29.79 in WNW 3.6 mph 9.0 mph 66 % 0.00 in
03:14 50.4 °F 39.5 °F 29.79 in West 0.7 mph 3.5 mph 66 % 0.00 in
03:19 50.3 °F 39.4 °F 29.80 in West 2.2 mph 3.5 mph 66 % 0.00 in
03:29 50.1 °F 39.2 °F 29.81 in West 1.4 mph 4.6 mph 66 % 0.00 in
03:34 50.0 °F 39.1 °F 29.81 in NW 3.1 mph 9.0 mph 66 % 0.00 in
03:39 49.8 °F 38.5 °F 29.81 in NW 2.7 mph 9.2 mph 65 % 0.00 in
03:41 49.7 °F 38.4 °F 29.81 in WNW 2.6 mph 8.1 mph 65 % 0.00 in
03:46 49.7 °F 38.4 °F 29.81 in WNW 4.1 mph 10.4 mph 65 % 0.00 in
03:56 49.5 °F 38.2 °F 29.81 in WNW 4.1 mph 8.1 mph 65 % 0.00 in
04:01 49.5 °F 38.2 °F 29.81 in West 5.1 mph 8.1 mph 65 % 0.00 in
04:06 49.4 °F 37.7 °F 29.81 in West 6.9 mph 10.4 mph 64 % 0.00 in
04:11 49.3 °F 37.6 °F 29.81 in NNW 6.4 mph 13.8 mph 64 % 0.00 in
04:16 49.2 °F 37.5 °F 29.82 in WNW 6.8 mph 8.0 mph 64 % 0.00 in
04:22 49.1 °F 37.4 °F 29.82 in WSW 3.8 mph 3.8 mph 64 % 0.00 in
04:27 49.0 °F 37.3 °F 29.82 in WNW 5.8 mph 11.5 mph 64 % 0.00 in
04:32 48.9 °F 37.3 °F 29.82 in WSW 4.7 mph 11.5 mph 64 % 0.00 in
04:37 48.7 °F 37.5 °F 29.82 in West 2.2 mph 9.2 mph 65 % 0.00 in
04:42 48.6 °F 37.4 °F 29.82 in WNW 2.7 mph 9.2 mph 65 % 0.00 in
04:47 48.3 °F 37.5 °F 29.83 in West 3.7 mph 11.5 mph 66 % 0.00 in
04:52 48.1 °F 37.7 °F 29.83 in West 6.1 mph 8.1 mph 67 % 0.00 in
04:57 47.9 °F 37.8 °F 29.84 in West 5.6 mph 12.7 mph 68 % 0.00 in
05:02 47.7 °F 37.7 °F 29.84 in SW 5.7 mph 10.4 mph 68 % 0.00 in
05:07 47.5 °F 37.8 °F 29.84 in WSW 3.5 mph 13.8 mph 69 % 0.00 in
05:12 47.3 °F 37.3 °F 29.85 in West 6.1 mph 12.0 mph 68 % 0.00 in
05:17 47.2 °F 37.5 °F 29.85 in WSW 4.9 mph 9.0 mph 69 % 0.00 in
05:22 47.0 °F 37.0 °F 29.85 in WNW 3.3 mph 10.4 mph 68 % 0.00 in
05:27 46.9 °F 37.3 °F 29.85 in WSW 5.4 mph 8.1 mph 69 % 0.00 in
05:32 46.8 °F 37.2 °F 29.85 in NNW 3.9 mph 11.5 mph 69 % 0.00 in
05:37 46.7 °F 37.1 °F 29.85 in WNW 5.1 mph 12.7 mph 69 % 0.00 in
05:42 46.5 °F 36.9 °F 29.85 in WSW 5.9 mph 11.5 mph 69 % 0.00 in
05:48 46.5 °F 36.9 °F 29.86 in WNW 6.2 mph 9.0 mph 69 % 0.00 in
05:53 46.4 °F 36.8 °F 29.86 in SW 4.5 mph 11.5 mph 69 % 0.00 in
05:58 46.3 °F 36.7 °F 29.87 in West 1.9 mph 6.9 mph 69 % 0.00 in
06:03 46.2 °F 37.0 °F 29.86 in WNW 3.7 mph 11.5 mph 70 % 0.00 in
06:07 46.1 °F 36.9 °F 29.86 in WNW 2.0 mph 11.5 mph 70 % 0.00 in
06:12 46.0 °F 36.8 °F 29.86 in WSW 4.7 mph 11.5 mph 70 % 0.00 in
06:17 46.0 °F 36.8 °F 29.86 in West 2.0 mph 10.4 mph 70 % 0.00 in
06:22 45.9 °F 36.7 °F 29.86 in WNW 5.7 mph 12.7 mph 70 % 0.00 in
06:27 45.8 °F 36.6 °F 29.86 in West 4.8 mph 10.4 mph 70 % 0.00 in
06:32 45.7 °F 36.5 °F 29.87 in West 6.4 mph 12.7 mph 70 % 0.00 in
06:37 45.7 °F 36.5 °F 29.87 in West 2.7 mph 6.9 mph 70 % 0.00 in
06:42 45.6 °F 36.4 °F 29.88 in WSW 4.7 mph 8.1 mph 70 % 0.00 in
06:47 45.6 °F 36.4 °F 29.89 in West 5.4 mph 8.1 mph 70 % 0.00 in
06:52 45.5 °F 36.3 °F 29.89 in WNW 5.5 mph 9.2 mph 70 % 0.00 in
06:57 45.5 °F 36.3 °F 29.89 in SSW 7.0 mph 11.5 mph 70 % 0.00 in
07:02 45.5 °F 36.3 °F 29.90 in WSW 3.7 mph 4.6 mph 70 % 0.00 in
07:07 45.5 °F 36.3 °F 29.90 in West 3.3 mph 11.5 mph 70 % 0.00 in
07:12 45.5 °F 36.3 °F 29.90 in West 5.6 mph 9.2 mph 70 % 0.00 in
07:17 45.5 °F 36.3 °F 29.90 in WSW 7.6 mph 10.4 mph 70 % 0.00 in
07:22 45.5 °F 36.3 °F 29.90 in WSW 2.5 mph 5.8 mph 70 % 0.00 in
07:28 45.5 °F 36.6 °F 29.90 in West 4.2 mph 10.4 mph 71 % 0.00 in
07:33 45.4 °F 36.2 °F 29.90 in WNW 6.9 mph 11.5 mph 70 % 0.00 in
07:38 45.5 °F 36.6 °F 29.91 in West 3.0 mph 15.0 mph 71 % 0.00 in
07:43 45.5 °F 36.3 °F 29.91 in WSW 9.3 mph 13.8 mph 70 % 0.00 in
07:48 45.6 °F 36.4 °F 29.91 in West 4.5 mph 8.1 mph 70 % 0.00 in
07:53 45.7 °F 36.8 °F 29.91 in West 5.0 mph 11.5 mph 71 % 0.00 in
07:58 45.8 °F 36.6 °F 29.92 in West 8.0 mph 16.1 mph 70 % 0.00 in
08:03 45.9 °F 36.3 °F 29.92 in WSW 5.9 mph 11.5 mph 69 % 0.00 in
08:08 46.0 °F 36.4 °F 29.92 in WSW 5.8 mph 10.4 mph 69 % 0.00 in
08:13 46.0 °F 36.0 °F 29.92 in WNW 7.6 mph 19.6 mph 68 % 0.00 in
08:18 46.1 °F 36.1 °F 29.93 in West 6.3 mph 11.5 mph 68 % 0.00 in
08:22 46.1 °F 36.1 °F 29.93 in NW 5.4 mph 16.1 mph 68 % 0.00 in
08:27 46.2 °F 36.2 °F 29.93 in West 5.0 mph 17.3 mph 68 % 0.00 in
08:32 46.2 °F 35.8 °F 29.93 in WNW 3.4 mph 9.2 mph 67 % 0.00 in
08:37 46.2 °F 35.8 °F 29.93 in WNW 5.2 mph 10.4 mph 67 % 0.00 in
08:42 46.3 °F 34.4 °F 29.93 in WNW 3.4 mph 7.0 mph 63 % 0.00 in
08:47 46.4 °F 34.1 °F 29.93 in WSW 11.8 mph 18.0 mph 62 % 0.00 in
08:50 46.5 °F 34.2 °F 29.93 in NNW 6.7 mph 16.1 mph 62 % 0.00 in
08:55 46.7 °F 34.8 °F 29.93 in WNW 4.5 mph 14.0 mph 63 % 0.00 in
09:00 46.9 °F 34.6 °F 29.94 in West 6.4 mph 13.0 mph 62 % 0.00 in
09:05 47.3 °F 35.3 °F 29.94 in WNW 7.5 mph 15.0 mph 63 % 0.00 in
09:15 47.7 °F 34.5 °F 29.93 in WNW 5.7 mph 12.0 mph 60 % 0.00 in
09:20 47.8 °F 34.6 °F 29.93 in West 4.9 mph 19.6 mph 60 % 0.00 in
09:25 47.8 °F 35.0 °F 29.94 in NNW 5.5 mph 13.8 mph 61 % 0.00 in
09:30 47.9 °F 34.3 °F 29.95 in NW 9.3 mph 12.0 mph 59 % 0.00 in
09:35 47.9 °F 32.9 °F 29.95 in WNW 6.3 mph 16.1 mph 56 % 0.00 in
09:40 47.9 °F 32.9 °F 29.94 in WNW 10.1 mph 17.3 mph 56 % 0.00 in
09:45 48.0 °F 33.0 °F 29.94 in West 10.0 mph 15.0 mph 56 % 0.00 in
09:50 48.0 °F 33.5 °F 29.95 in WSW 9.8 mph 14.0 mph 57 % 0.00 in
09:55 48.0 °F 33.0 °F 29.95 in West 5.1 mph 16.1 mph 56 % 0.00 in
10:00 48.2 °F 33.2 °F 29.96 in WSW 8.6 mph 13.8 mph 56 % 0.00 in
10:05 48.3 °F 33.8 °F 29.96 in WNW 7.3 mph 12.7 mph 57 % 0.00 in
10:10 48.5 °F 33.9 °F 29.96 in NW 8.7 mph 13.0 mph 57 % 0.00 in
10:15 48.4 °F 33.9 °F 29.96 in West 8.6 mph 17.3 mph 57 % 0.00 in
10:20 48.1 °F 33.1 °F 29.96 in West 8.1 mph 13.8 mph 56 % 0.00 in
10:25 47.7 °F 33.6 °F 29.96 in NW 7.4 mph 16.1 mph 58 % 0.00 in
10:27 47.6 °F 33.1 °F 29.96 in NW 8.4 mph 12.0 mph 57 % 0.00 in
10:32 47.4 °F 32.9 °F 29.95 in WNW 11.5 mph 15.0 mph 57 % 0.00 in
10:38 47.3 °F 32.4 °F 29.96 in NW 6.8 mph 12.7 mph 56 % 0.00 in
10:43 47.4 °F 32.0 °F 29.96 in WNW 6.4 mph 15.0 mph 55 % 0.00 in
10:48 47.3 °F 32.4 °F 29.96 in WNW 7.7 mph 12.0 mph 56 % 0.00 in
10:53 47.1 °F 31.7 °F 29.96 in NW 3.2 mph 11.5 mph 55 % 0.00 in
10:58 46.9 °F 31.6 °F 29.95 in West 7.2 mph 16.1 mph 55 % 0.00 in
11:03 46.7 °F 31.4 °F 29.95 in West 8.6 mph 13.8 mph 55 % 0.00 in
11:08 46.6 °F 31.7 °F 29.95 in SW 6.1 mph 12.7 mph 56 % 0.00 in
11:13 46.5 °F 31.6 °F 29.95 in West 6.7 mph 11.5 mph 56 % 0.00 in
11:18 46.3 °F 30.5 °F 29.95 in WNW 9.1 mph 12.7 mph 54 % 0.00 in
11:23 46.2 °F 30.9 °F 29.95 in WNW 8.8 mph 11.5 mph 55 % 0.00 in
11:28 46.1 °F 30.8 °F 29.95 in SW 7.9 mph 15.0 mph 55 % 0.00 in
11:33 46.0 °F 30.3 °F 29.95 in West 8.9 mph 19.6 mph 54 % 0.00 in
11:38 45.9 °F 31.1 °F 29.95 in West 5.2 mph 8.1 mph 56 % 0.00 in
11:43 45.9 °F 31.1 °F 29.96 in WSW 6.3 mph 11.5 mph 56 % 0.00 in
11:48 45.9 °F 31.1 °F 29.96 in NNW 7.2 mph 17.3 mph 56 % 0.00 in
11:53 46.0 °F 31.2 °F 29.95 in WNW 4.2 mph 9.2 mph 56 % 0.00 in
11:58 46.0 °F 31.2 °F 29.95 in WNW 5.6 mph 8.1 mph 56 % 0.00 in
12:00 46.0 °F 30.7 °F 29.95 in WNW 9.5 mph 10.0 mph 55 % 0.00 in
12:05 46.1 °F 30.8 °F 29.95 in WNW 11.6 mph 16.1 mph 55 % 0.00 in
12:10 46.1 °F 30.4 °F 29.95 in WNW 8.0 mph 17.3 mph 54 % 0.00 in
12:15 46.1 °F 31.3 °F 29.95 in West 7.1 mph 19.6 mph 56 % 0.00 in
12:20 46.3 °F 31.0 °F 29.95 in West 9.3 mph 14.0 mph 55 % 0.00 in
12:25 46.3 °F 31.0 °F 29.95 in SW 6.8 mph 16.1 mph 55 % 0.00 in
12:35 46.5 °F 31.2 °F 29.95 in WNW 6.6 mph 16.1 mph 55 % 0.00 in
12:40 46.5 °F 31.2 °F 29.94 in NNW 5.7 mph 9.2 mph 55 % 0.00 in
12:45 46.6 °F 31.3 °F 29.94 in WNW 6.5 mph 12.7 mph 55 % 0.00 in
12:50 46.6 °F 30.8 °F 29.94 in NW 5.8 mph 10.4 mph 54 % 0.00 in
12:55 46.7 °F 30.5 °F 29.95 in WSW 6.5 mph 15.0 mph 53 % 0.00 in
13:00 46.8 °F 31.0 °F 29.95 in SW 5.1 mph 10.4 mph 54 % 0.00 in
13:05 46.9 °F 31.1 °F 29.95 in WSW 2.8 mph 7.0 mph 54 % 0.00 in
13:10 47.1 °F 31.3 °F 29.95 in West 7.0 mph 12.7 mph 54 % 0.00 in
13:15 47.2 °F 30.9 °F 29.94 in WSW 8.3 mph 17.3 mph 53 % 0.00 in
13:20 47.2 °F 31.4 °F 29.95 in WNW 3.3 mph 9.2 mph 54 % 0.00 in
13:25 47.3 °F 31.0 °F 29.95 in WNW 6.1 mph 11.0 mph 53 % 0.00 in
13:30 47.4 °F 30.6 °F 29.95 in WNW 6.9 mph 17.3 mph 52 % 0.00 in
13:35 47.5 °F 30.7 °F 29.95 in NW 4.4 mph 11.5 mph 52 % 0.00 in
13:40 47.6 °F 31.3 °F 29.94 in WNW 8.1 mph 14.0 mph 53 % 0.00 in
13:45 47.6 °F 30.8 °F 29.94 in NW 5.7 mph 11.5 mph 52 % 0.00 in
13:50 47.5 °F 30.3 °F 29.94 in WSW 7.6 mph 10.4 mph 51 % 0.00 in
13:55 47.3 °F 30.5 °F 29.94 in WNW 7.7 mph 11.5 mph 52 % 0.00 in
14:00 47.0 °F 30.3 °F 29.94 in WNW 7.5 mph 13.8 mph 52 % 0.00 in
14:05 46.7 °F 30.5 °F 29.93 in West 5.1 mph 13.8 mph 53 % 0.00 in
14:10 46.5 °F 30.7 °F 29.94 in West 5.5 mph 12.7 mph 54 % 0.00 in
14:15 46.3 °F 31.0 °F 29.94 in WNW 4.0 mph 12.0 mph 55 % 0.00 in
14:21 46.2 °F 31.4 °F 29.94 in West 3.7 mph 10.4 mph 56 % 0.00 in
14:25 46.2 °F 31.4 °F 29.94 in WNW 6.5 mph 15.0 mph 56 % 0.00 in
14:30 46.1 °F 30.4 °F 29.94 in WNW 7.9 mph 16.1 mph 54 % 0.00 in
14:35 46.0 °F 31.2 °F 29.94 in WNW 4.8 mph 11.5 mph 56 % 0.00 in
14:41 46.0 °F 31.2 °F 29.95 in NW 8.0 mph 17.0 mph 56 % 0.00 in
14:46 46.0 °F 31.2 °F 29.94 in WNW 5.0 mph 16.0 mph 56 % 0.00 in
14:51 45.9 °F 31.5 °F 29.94 in WNW 6.0 mph 16.0 mph 57 % 0.00 in
14:56 45.8 °F 31.0 °F 29.94 in WNW 3.0 mph 17.0 mph 56 % 0.00 in
15:01 45.7 °F 31.3 °F 29.94 in WNW 7.0 mph 11.5 mph 57 % 0.00 in
15:06 45.6 °F 31.2 °F 29.94 in West 6.6 mph 8.0 mph 57 % 0.00 in
15:11 45.5 °F 30.3 °F 29.95 in NNW 7.5 mph 13.8 mph 55 % 0.00 in
15:16 45.4 °F 30.6 °F 29.95 in WNW 4.7 mph 11.5 mph 56 % 0.00 in
15:21 45.2 °F 30.0 °F 29.95 in WNW 7.1 mph 12.7 mph 55 % 0.00 in
15:26 45.1 °F 29.4 °F 29.95 in WNW 5.6 mph 15.0 mph 54 % 0.00 in
15:31 45.0 °F 29.3 °F 29.96 in NW 5.2 mph 11.5 mph 54 % 0.00 in
15:36 44.9 °F 29.7 °F 29.95 in West 6.0 mph 14.0 mph 55 % 0.00 in
15:41 44.8 °F 29.6 °F 29.94 in NW 5.7 mph 12.0 mph 55 % 0.00 in
15:46 44.7 °F 30.0 °F 29.95 in NW 2.9 mph 11.5 mph 56 % 0.00 in
15:51 44.6 °F 29.9 °F 29.96 in WSW 7.1 mph 15.0 mph 56 % 0.00 in
15:56 44.6 °F 29.9 °F 29.96 in NW 6.3 mph 16.1 mph 56 % 0.00 in
16:01 44.5 °F 30.2 °F 29.96 in WNW 6.9 mph 10.4 mph 57 % 0.00 in
16:06 44.5 °F 30.2 °F 29.96 in SW 4.6 mph 9.2 mph 57 % 0.00 in
16:12 44.4 °F 30.1 °F 29.96 in WSW 6.6 mph 10.4 mph 57 % 0.00 in
16:17 44.3 °F 30.0 °F 29.96 in WNW 7.6 mph 11.5 mph 57 % 0.00 in
16:22 44.2 °F 30.3 °F 29.96 in West 9.4 mph 15.0 mph 58 % 0.00 in
16:27 44.1 °F 29.8 °F 29.96 in WNW 5.2 mph 12.0 mph 57 % 0.00 in
16:32 44.0 °F 29.7 °F 29.96 in West 7.3 mph 15.0 mph 57 % 0.00 in
16:37 44.0 °F 29.7 °F 29.96 in West 7.3 mph 18.4 mph 57 % 0.00 in
16:42 43.8 °F 29.5 °F 29.96 in WNW 9.1 mph 14.0 mph 57 % 0.00 in
16:47 43.8 °F 29.5 °F 29.97 in NW 5.0 mph 11.5 mph 57 % 0.00 in
16:52 43.8 °F 30.0 °F 29.98 in NW 5.8 mph 12.0 mph 58 % 0.00 in
16:57 43.6 °F 29.8 °F 29.98 in West 5.1 mph 9.2 mph 58 % 0.00 in
17:02 43.5 °F 29.7 °F 29.98 in NW 6.6 mph 18.4 mph 58 % 0.00 in
17:07 43.4 °F 29.6 °F 29.98 in WNW 4.9 mph 7.0 mph 58 % 0.00 in
17:12 43.3 °F 29.9 °F 29.97 in WNW 6.2 mph 10.0 mph 59 % 0.00 in
17:17 43.2 °F 30.2 °F 29.97 in WNW 3.1 mph 12.7 mph 60 % 0.00 in
17:23 43.1 °F 30.1 °F 29.98 in NW 3.7 mph 9.2 mph 60 % 0.00 in
17:28 43.0 °F 30.5 °F 29.98 in WNW 3.8 mph 11.5 mph 61 % 0.00 in
17:33 42.9 °F 30.0 °F 29.98 in SSW 8.0 mph 10.4 mph 60 % 0.00 in
17:38 42.8 °F 29.0 °F 29.98 in West 1.4 mph 9.2 mph 58 % 0.00 in
17:43 42.8 °F 29.0 °F 29.98 in WNW 5.0 mph 10.0 mph 58 % 0.00 in
17:48 42.7 °F 29.4 °F 29.98 in NW 3.3 mph 7.0 mph 59 % 0.00 in
17:53 42.6 °F 29.7 °F 29.98 in WSW 4.4 mph 9.2 mph 60 % 0.00 in
17:58 42.5 °F 29.2 °F 29.98 in NW 6.3 mph 10.4 mph 59 % 0.00 in
18:03 42.4 °F 29.5 °F 29.98 in WNW 4.1 mph 8.0 mph 60 % 0.00 in
18:08 42.3 °F 29.0 °F 29.98 in WNW 5.6 mph 11.5 mph 59 % 0.00 in
18:13 42.2 °F 28.9 °F 29.98 in NW 1.8 mph 12.7 mph 59 % 0.00 in
18:19 42.1 °F 28.8 °F 29.99 in WNW 3.6 mph 5.8 mph 59 % 0.00 in
18:24 42.0 °F 28.7 °F 29.99 in WSW 2.3 mph 9.2 mph 59 % 0.00 in
18:29 41.9 °F 29.0 °F 29.99 in West 2.5 mph 6.9 mph 60 % 0.00 in
18:34 41.9 °F 29.0 °F 29.99 in WNW 3.8 mph 8.1 mph 60 % 0.00 in
18:39 41.9 °F 29.0 °F 29.99 in West 3.8 mph 6.9 mph 60 % 0.00 in
18:44 41.8 °F 29.3 °F 29.99 in West 2.5 mph 5.8 mph 61 % 0.00 in
18:49 41.8 °F 29.3 °F 29.99 in WSW 4.9 mph 6.9 mph 61 % 0.00 in
18:54 41.7 °F 29.6 °F 29.99 in WNW 1.2 mph 7.0 mph 62 % 0.00 in
18:59 41.8 °F 29.7 °F 29.99 in WSW 0.8 mph 8.1 mph 62 % 0.00 in
19:04 41.7 °F 29.2 °F 30.00 in WSW 4.8 mph 6.9 mph 61 % 0.00 in
19:09 41.6 °F 29.1 °F 30.00 in West 4.9 mph 4.9 mph 61 % 0.00 in
19:15 41.6 °F 29.1 °F 30.00 in WSW 5.5 mph 11.5 mph 61 % 0.00 in
19:20 41.5 °F 29.0 °F 30.00 in SW 3.4 mph 4.6 mph 61 % 0.00 in
19:25 41.5 °F 29.4 °F 30.00 in WNW 4.2 mph 6.9 mph 62 % 0.00 in
19:30 41.4 °F 29.3 °F 30.00 in WSW 4.0 mph 9.0 mph 62 % 0.00 in
19:35 41.3 °F 29.3 °F 30.00 in West 5.5 mph 8.1 mph 62 % 0.00 in
19:40 41.2 °F 29.5 °F 30.00 in WSW 3.3 mph 8.1 mph 63 % 0.00 in
19:45 41.2 °F 29.5 °F 30.00 in West 1.2 mph 5.8 mph 63 % 0.00 in
19:50 41.1 °F 29.5 °F 30.00 in West 2.4 mph 4.6 mph 63 % 0.00 in
19:55 41.1 °F 29.5 °F 30.01 in WSW 2.4 mph 5.8 mph 63 % 0.00 in
20:00 41.0 °F 29.0 °F 30.00 in West 3.6 mph 6.9 mph 62 % 0.00 in
20:06 40.9 °F 29.3 °F 30.00 in WNW 2.1 mph 3.5 mph 63 % 0.00 in
20:11 40.9 °F 29.3 °F 30.00 in West 2.0 mph 10.0 mph 63 % 0.00 in
20:16 40.8 °F 28.8 °F 30.00 in West 3.0 mph 10.0 mph 62 % 0.00 in
20:21 40.8 °F 28.8 °F 30.00 in West 2.0 mph 7.0 mph 62 % 0.00 in
20:26 40.8 °F 29.2 °F 30.00 in West 5.0 mph 8.0 mph 63 % 0.00 in
20:31 40.8 °F 29.2 °F 30.01 in West 3.0 mph 9.0 mph 63 % 0.00 in
20:36 40.7 °F 29.1 °F 30.01 in West 6.0 mph 8.0 mph 63 % 0.00 in
20:41 40.7 °F 29.1 °F 30.01 in West 5.0 mph 8.0 mph 63 % 0.00 in
20:46 40.6 °F 29.0 °F 30.00 in West 3.0 mph 6.0 mph 63 % 0.00 in
20:51 40.6 °F 29.0 °F 30.00 in West 5.0 mph 8.0 mph 63 % 0.00 in
20:56 40.6 °F 29.0 °F 30.00 in WNW 1.4 mph 5.8 mph 63 % 0.00 in
21:01 40.5 °F 28.9 °F 30.00 in West 4.7 mph 7.0 mph 63 % 0.00 in
21:06 40.5 °F 28.9 °F 30.00 in West 5.2 mph 8.1 mph 63 % 0.00 in
21:11 40.4 °F 28.8 °F 30.00 in West 3.8 mph 8.1 mph 63 % 0.00 in
21:16 40.4 °F 28.8 °F 30.00 in WSW 2.6 mph 5.8 mph 63 % 0.00 in
21:21 40.3 °F 28.7 °F 30.00 in WNW 3.5 mph 5.8 mph 63 % 0.00 in
21:26 40.3 °F 28.7 °F 29.99 in West 4.8 mph 10.4 mph 63 % 0.00 in
21:31 40.2 °F 28.6 °F 29.99 in WSW 1.4 mph 3.5 mph 63 % 0.00 in
21:36 40.2 °F 29.0 °F 29.99 in West 0.4 mph 3.5 mph 64 % 0.00 in
21:41 40.1 °F 28.9 °F 29.99 in WNW 3.1 mph 5.8 mph 64 % 0.00 in
21:46 40.0 °F 28.8 °F 29.98 in WSW 5.8 mph 11.5 mph 64 % 0.00 in
21:51 40.0 °F 28.8 °F 29.98 in WNW 4.1 mph 8.1 mph 64 % 0.00 in
21:56 40.0 °F 28.8 °F 29.99 in West 1.1 mph 2.3 mph 64 % 0.00 in
22:01 39.9 °F 29.1 °F 29.99 in Calm     65 % 0.00 in
22:06 39.8 °F 29.0 °F 29.99 in West 1.4 mph 4.0 mph 65 % 0.00 in
22:11 39.7 °F 28.9 °F 29.99 in WSW 0.1 mph 2.3 mph 65 % 0.00 in
22:17 39.6 °F 28.8 °F 29.99 in WSW 1.2 mph 2.0 mph 65 % 0.00 in
22:22 39.4 °F 28.6 °F 29.99 in WSW 0.1 mph 2.3 mph 65 % 0.00 in
22:27 39.3 °F 28.9 °F 29.99 in WSW 1.0 mph 3.5 mph 66 % 0.00 in
22:32 39.1 °F 28.7 °F 29.98 in Calm   2.3 mph 66 % 0.00 in
22:37 38.9 °F 28.9 °F 29.98 in SSW 0.2 mph 1.0 mph 67 % 0.00 in
22:42 38.7 °F 28.7 °F 29.98 in WSW 0.7 mph 2.3 mph 67 % 0.00 in
22:48 38.6 °F 28.9 °F 29.98 in Calm   2.3 mph 68 % 0.00 in
22:53 38.4 °F 28.8 °F 29.98 in SW 2.6 mph 4.0 mph 68 % 0.00 in
22:58 38.3 °F 28.3 °F 29.98 in WSW 2.6 mph 3.5 mph 67 % 0.00 in
23:03 38.3 °F 28.7 °F 29.98 in SW 1.5 mph 5.8 mph 68 % 0.00 in
23:08 38.3 °F 28.7 °F 29.99 in SSW 0.7 mph 3.5 mph 68 % 0.00 in
23:13 38.3 °F 28.7 °F 29.99 in West 4.3 mph 5.8 mph 68 % 0.00 in
23:17 38.3 °F 29.0 °F 29.99 in West 1.0 mph 3.0 mph 69 % 0.00 in
23:22 38.4 °F 28.8 °F 29.99 in WSW 2.9 mph 5.0 mph 68 % 0.00 in
23:27 38.4 °F 28.8 °F 29.99 in SW 0.6 mph 3.5 mph 68 % 0.00 in
23:33 38.5 °F 28.9 °F 30.00 in SSW 1.2 mph 5.0 mph 68 % 0.00 in
23:38 38.5 °F 28.9 °F 29.99 in WSW 0.2 mph 2.3 mph 68 % 0.00 in
23:43 38.6 °F 28.9 °F 29.99 in West 1.1 mph 3.5 mph 68 % 0.00 in
23:48 38.6 °F 28.9 °F 29.98 in SSW 2.1 mph 3.5 mph 68 % 0.00 in
23:53 38.6 °F 28.9 °F 29.98 in WSW 2.3 mph 3.5 mph 68 % 0.00 in
23:58 38.7 °F 29.0 °F 29.98 in West 2.6 mph 4.6 mph 68 % 0.00 in
Crab Meadow Weather
Compliments of Weather Underground - 3 mb

Script developed by  Jim McMurry - jmcmurry@mwt.net Adapted for the template by  Wim van der Kuil - Leuven-Template.eu

Clouds: Partly sunny and partly cloudy indicate the same amount of cloud coverage - about 50 percent. Partly sunny is used during the daytime, and partly cloudy is used at night when there is no sun.